Location: Costa Valle Imagna
(45.8000°N, 9.5000°E)
Time: 18:30:45
(UTC+00:00)

Cosmos 1153 Rocket - Pass Details

Date: 17 February 2020
Orbit: 952 x 1007 km, 82.9° (Epoch: 28 March)

Event Time Altitude Azimuth Distance (km) Brightness Sun altitude
Rises 04:16:32 0° 351° (N) 3,657 7.5 -22.5°
Reaches altitude 10° 04:19:04 10° 352° (N) 2,701 6.8 -22.1°
Maximum altitude 04:25:15 86° 80° (E) 962 4.4 -21.0°
Drops below altitude 10° 04:31:22 10° 172° (S) 2,672 6.9 -19.9°
Sets 04:33:50 0° 173° (S) 3,615 7.5 -19.5°
